DateTimeUTC,F1_A11,F1_S11,BsB_S11,BsG_S11,BsR_S11,BbsB_S11,BbsG_S11,BbsR_S11,BaB_A11,BaG_A11,BaR_A11,Tu_S11,T_S11,Uu_S11,U_S11,P_S11,T1_A11
2021-07-06T04:00:00Z,00000200,20000000,,,,,,,-000.11,0000.10,-000.27,19.4,26.1,05.3,03.5,0663.6,31.2
2021-07-06T04:01:00Z,00000200,20000000,,,,,,,0000.05,-000.32,-000.09,19.4,26.1,05.3,03.5,0663.7,31.2
2021-07-06T04:02:00Z,00000200,20000000,,,,,,,-000.23,0000.36,0000.01,19.4,26.1,05.3,03.5,0663.7,31.2
2021-07-06T04:03:00Z,00000200,60000000,,,,,,,-000.09,-000.49,-000.33,19.4,26.1,05.3,03.5,0663.7,31.2
2021-07-06T04:04:00Z,00000200,40000000,0000.79,0000.23,0000.47,0000.25,0000.40,0000.37,-000.40,-000.22,0000.04,19.4,25.8,04.9,03.3,0664.6,31.1
2021-07-06T04:05:00Z,00000200,00000000,-000.47,-000.09,0000.03,0000.30,-000.13,0000.09,0000.01,0000.21,-000.23,19.4,25.8,04.9,03.3,0664.7,31.1
2021-07-06T04:06:00Z,00000200,00000000,0000.23,0000.43,-000.14,-000.20,0000.06,0000.36,0000.20,0000.18,0000.15,19.4,25.8,04.8,03.3,0664.7,31.2
2021-07-06T04:07:00Z,00000200,00000000,-000.06,0000.31,-000.01,-000.45,-000.03,0000.04,0000.00,-000.04,-000.05,19.5,25.8,04.8,03.3,0664.7,31.2
2021-07-06T04:08:00Z,00000200,00000000,-000.02,0000.13,-000.01,-000.18,0000.35,0000.14,0000.34,0000.10,0000.54,19.6,25.8,05.0,03.4,0664.7,31.2
2021-07-06T04:09:00Z,00000200,00000000,-000.02,0000.07,0000.08,-000.12,0000.08,0000.23,-000.28,0000.12,-000.38,19.6,25.9,05.1,03.5,0664.7,31.2
2021-07-06T04:10:00Z,00000200,00000000,0000.02,-000.12,-000.21,-000.51,-000.24,0000.11,0000.36,0000.04,0000.13,19.7,25.9,05.1,03.5,0664.7,31.2
2021-07-06T04:11:00Z,00000200,00000000,-000.12,0000.25,0000.09,0000.13,0000.15,-000.15,-000.04,-000.18,-000.18,19.7,25.9,05.2,03.5,0664.7,31.2
2021-07-06T04:12:00Z,00000200,00000000,-000.06,0000.17,0000.24,0000.05,-000.14,0000.10,-000.25,-000.24,0000.31,19.6,25.9,05.1,03.5,0664.7,31.2
2021-07-06T04:13:00Z,00000200,00000000,0000.24,0000.01,-000.03,0000.40,0000.23,0000.22,0000.04,-000.10,-000.29,19.6,25.9,05.0,03.4,0664.7,31.2
2021-07-06T04:14:00Z,00000200,00000000,-000.06,0000.05,0000.35,-000.15,-000.08,-000.23,-000.03,0000.39,0000.14,19.5,25.8,05.0,03.4,0664.7,31.2
2021-07-06T04:15:00Z,00000200,00000000,-000.58,-000.19,0000.03,-000.51,0000.07,0000.21,-000.04,-000.28,-000.28,19.5,25.8,05.0,03.4,0664.7,31.2
2021-07-06T04:16:00Z,00000200,00000000,0000.33,0000.11,-000.20,-000.25,0000.20,-000.02,-000.07,-000.01,0000.42,19.4,25.8,04.9,03.4,0664.6,31.2
2021-07-06T04:17:00Z,00000200,00000000,-000.43,0000.01,-000.12,0000.14,0000.04,0000.15,0000.29,0000.29,-000.08,19.4,25.8,05.1,03.4,0664.6,31.2
2021-07-06T04:18:00Z,00000200,00000000,0000.01,-000.03,0000.09,-000.25,0000.01,-000.27,0000.02,0000.10,0000.07,19.4,25.7,05.2,03.5,0664.6,31.1
2021-07-06T04:19:00Z,00000200,00000000,0000.06,-000.02,-000.02,-000.12,-000.02,0000.04,0000.13,0000.07,-000.12,19.3,25.7,05.3,03.6,0664.6,31.1
2021-07-06T04:20:00Z,00000200,00000000,-000.86,0000.03,-000.05,0000.03,0000.00,-000.24,-000.11,-000.27,0000.28,19.3,25.7,05.3,03.6,0664.6,31.1
2021-07-06T04:21:00Z,00000200,00000000,-000.40,0000.22,-000.30,-000.08,0000.26,-000.05,0000.60,0000.48,-000.02,19.3,25.7,05.4,03.7,0664.6,31.2
2021-07-06T04:22:00Z,00000200,00000000,-000.72,0000.24,-000.04,-000.47,0000.35,0000.08,0000.33,0000.18,0000.34,19.4,25.7,05.7,03.9,0664.6,31.2
2021-07-06T04:23:00Z,00000200,00000000,0000.09,-000.19,0000.02,-000.54,-000.14,0000.30,-000.31,0000.40,0000.11,19.5,25.7,05.5,03.8,0664.6,31.2
2021-07-06T04:24:00Z,00000200,00000000,0000.63,-000.22,0000.29,0000.12,0000.03,0000.06,-000.08,-000.39,-000.10,19.6,25.8,05.5,03.7,0664.6,31.2
2021-07-06T04:25:00Z,00000200,00000000,0000.09,0000.26,0000.12,0000.70,0000.07,0000.07,-000.34,-000.26,0000.15,19.6,25.8,05.4,03.7,0664.6,31.2
2021-07-06T04:26:00Z,00000200,00000000,-000.01,0000.00,-000.08,-000.18,-000.30,-000.09,0000.02,0000.28,-000.11,19.6,25.9,05.4,03.7,0664.6,31.2
2021-07-06T04:27:00Z,00000200,00000000,-000.79,0000.12,0000.43,-000.19,0000.15,0000.11,0000.04,-000.36,-000.37,19.6,25.8,05.3,03.6,0664.6,31.2
2021-07-06T04:28:00Z,00000200,00000000,-000.51,0000.28,0000.04,-000.41,0000.12,-000.22,-000.10,-000.02,-000.20,19.6,25.8,05.3,03.6,0664.6,31.2
2021-07-06T04:29:00Z,00000200,00000000,0000.09,-000.04,0000.01,0000.11,0000.19,-000.04,0000.02,0000.15,-000.09,19.5,25.8,05.3,03.6,0664.6,31.2
2021-07-06T04:30:00Z,00000200,00000000,-000.00,-000.08,0000.41,0000.51,-000.06,-000.05,0000.02,-000.19,0000.42,19.5,25.8,05.3,03.6,0664.6,31.2
2021-07-06T04:31:00Z,00000200,00000000,-000.12,0000.12,0000.01,0000.00,-000.04,0000.18,0000.05,-000.16,-000.13,19.5,25.8,05.2,03.5,0664.6,31.2
2021-07-06T04:32:00Z,00000200,00000000,-000.22,-000.09,-000.07,-000.56,0000.08,-000.04,-000.35,-000.01,-000.00,19.4,25.7,05.3,03.6,0664.6,31.2
2021-07-06T04:33:00Z,00000200,00000000,0000.17,-000.04,-000.06,-000.35,0000.20,0000.03,0000.44,0000.29,0000.31,19.4,25.7,05.3,03.6,0664.6,31.1
2021-07-06T04:34:00Z,00000200,00000000,-000.31,0000.12,-000.26,-000.33,0000.16,-000.24,-000.17,0000.29,-000.10,19.3,25.7,05.3,03.6,0664.6,31.1
2021-07-06T04:35:00Z,00000200,00000000,-000.18,0000.12,0000.07,0000.07,-000.20,0000.14,0000.11,-000.53,0000.09,19.3,25.7,05.4,03.6,0664.6,31.2
2021-07-06T04:36:00Z,00000200,00000000,-000.30,0000.18,0000.07,0000.32,-000.24,0000.23,0000.07,0000.15,-000.19,19.3,25.7,05.3,03.6,0664.6,31.2
2021-07-06T04:37:00Z,00000200,00000000,-000.42,-000.24,-000.09,-000.32,0000.25,0000.20,-000.05,0000.58,0000.27,19.4,25.7,05.3,03.6,0664.6,31.2
2021-07-06T04:38:00Z,00000200,00000000,-000.04,0000.10,-000.01,-000.55,0000.30,-000.10,-000.07,-000.44,-000.17,19.5,25.7,05.3,03.6,0664.6,31.2
2021-07-06T04:39:00Z,00000200,00000000,0000.08,-000.11,0000.00,-000.49,-000.16,-000.15,0000.37,0000.12,-000.21,19.6,25.8,05.2,03.6,0664.6,31.2
2021-07-06T04:40:00Z,00000200,00000000,-000.42,-000.03,0000.22,-000.70,0000.04,0000.38,0000.10,0000.06,0000.18,19.7,25.8,05.2,03.6,0664.6,31.2
2021-07-06T04:41:00Z,00000200,00000000,-000.42,0000.08,-000.26,-000.33,0000.33,-000.16,-000.37,-000.08,0000.02,19.7,25.9,05.3,03.7,0664.6,31.2
2021-07-06T04:42:00Z,00000200,00000000,0000.62,0000.21,0000.11,-000.58,0000.05,0000.10,0000.46,-000.04,0000.25,19.8,25.9,05.2,03.6,0664.6,31.2
2021-07-06T04:43:00Z,00000200,00000000,-000.15,-000.08,0000.43,-000.05,-000.06,0000.64,-000.56,-000.03,-000.37,19.7,25.9,05.3,03.7,0664.6,31.2
2021-07-06T04:44:00Z,00000200,00000000,-000.33,0000.06,-000.02,0000.16,-000.02,-000.14,0000.19,-000.09,0000.29,19.7,25.8,05.2,03.6,0664.6,31.2
2021-07-06T04:45:00Z,00000200,00000000,-000.25,-000.16,-000.16,-000.48,-000.34,-000.01,-000.22,-000.12,-000.27,19.6,25.8,05.2,03.6,0664.6,31.2
2021-07-06T04:46:00Z,00000200,00000000,-000.29,0000.41,-000.07,-000.07,-000.01,-000.14,0000.26,0000.50,0000.11,19.6,25.8,05.3,03.6,0664.6,31.2
2021-07-06T04:47:00Z,00000200,00000000,0000.04,0000.34,-000.13,-000.14,0000.02,-000.04,-000.08,-000.11,0000.17,19.5,25.8,05.2,03.6,0664.6,31.2
2021-07-06T04:48:00Z,00000200,00000000,0000.14,0000.27,0000.02,-000.45,0000.11,0000.04,0000.05,-000.14,-000.38,19.5,25.7,05.3,03.6,0664.6,31.2
2021-07-06T04:49:00Z,00000200,00000000,-000.36,-000.02,-000.13,0000.64,-000.10,-000.02,-000.03,0000.15,0000.23,19.4,25.7,05.3,03.7,0664.6,31.2
2021-07-06T04:50:00Z,00000200,00000000,-000.39,0000.09,0000.09,-000.56,0000.09,0000.25,0000.25,-000.48,-000.14,19.4,25.7,05.3,03.6,0664.6,31.2
2021-07-06T04:51:00Z,00000200,00000000,-000.34,-000.06,-000.03,-000.02,0000.09,-000.18,-000.22,0000.15,0000.01,19.4,25.7,05.2,03.6,0664.6,31.2
2021-07-06T04:52:00Z,00000200,00000000,-000.13,0000.35,0000.33,-000.15,0000.03,0000.33,-000.17,0000.27,0000.30,19.5,25.7,05.1,03.5,0664.6,31.2
2021-07-06T04:53:00Z,00000200,00000000,-000.66,-000.13,0000.07,-000.13,-000.03,-000.39,-000.00,0000.08,-000.45,19.6,25.8,05.2,03.6,0664.7,31.2
2021-07-06T04:54:00Z,00000200,00000000,-000.68,0000.13,0000.18,-000.16,0000.05,-000.05,-000.08,-000.23,0000.08,19.7,25.8,05.1,03.5,0664.7,31.2
2021-07-06T04:55:00Z,00000200,00000000,0000.71,-000.04,0000.06,-000.38,0000.07,0000.19,0000.06,0000.24,0000.36,19.8,25.9,05.1,03.5,0664.7,31.2
2021-07-06T04:56:00Z,00000200,00000000,-000.26,-000.17,0000.06,0000.01,0000.39,-000.29,0000.00,-000.32,-000.25,19.8,25.9,05.1,03.5,0664.7,31.2
2021-07-06T04:57:00Z,00000200,40000000,,,,,,,0000.20,-000.01,-000.05,19.9,26.0,05.4,03.7,0664.6,31.2
2021-07-06T04:58:00Z,00000200,60000000,,,,,,,-000.32,0000.19,-000.11,19.5,26.0,05.0,03.3,0663.8,31.2
2021-07-06T04:59:00Z,00000200,20000000,,,,,,,0000.43,-000.15,0000.07,19.5,26.1,04.9,03.3,0663.8,31.2
